Volver al catálogo

ATLAS 5 CENTAUR DEB

LostHEO
NORAD 49375·DEBRIS·🇺🇸 United States

Lanzado Oct 17, 2018 desde Cape Canaveral Space Force Station

Loading…

Próximos Pases (próximas 24 horas)

TLE

ObsoletoSource: Space-Track

Época: Jun 11, 2023, 06:01 UTC

1 49375U 18079GC  23162.25112128 -.00000099  00000-0  00000-0 0  9998
2 49375  11.7551 130.2212 5206417 124.6455 295.9346  1.72365749 11333

Sigue ATLAS 5 CENTAUR DEB en tiempo real con AllMySat

Download on the App Store